Regional Weather Roundup
Issued by NWS Cleveland, OH

Home | Current Version | Previous Version | Graphics & Text | Print | Product List | Glossary On
Versions: 1 2 3 4 5 6 7 8 9 10 11 12 13 14 15 16 17 18 19 20 21 22 23 24 25 26 27 28 29 30 31 32 33 34 35 36 37 38 39 40 41 42 43 44 45 46 47 48 49 50
871
ASUS41 KCLE 220602
RWRCLE
OHIO REGIONAL WEATHER ROUNDUP
NATIONAL WEATHER SERVICE CLEVELAND, OH
100 AM EST WED FEB 22 2017

NOTE: "FAIR" INDICATES FEW OR NO CLOUDS BELOW 12,000 FEET WITH NO
SIGNIFICANT WEATHER AND/OR OBSTRUCTIONS TO VISIBILITY.

OHZ001>008-015>018-024>027-034-035-043-044-220700-
   NORTHWEST OHIO

CITY           SKY/WX    TMP DP  RH WIND       PRES   REMARKS
DEFIANCE       CLOUDY    47  46  97 CALM      29.91F FOG
FINDLAY        CLOUDY    50  45  83 S7        29.91F
TOLEDO EXPRESS FOG       45  45 100 CALM      29.90F VSB 1/4
TOLEDO EXEC    PTCLDY    47  46  97 CALM      29.92S FOG
LIMA           CLOUDY    55  52  89 S8        29.93S
$$

OHZ009>014-019>023-028>033-038-089-220700-
   NORTHEAST OHIO

CITY           SKY/WX    TMP DP  RH WIND       PRES   REMARKS
CLE-HOPKINS    CLOUDY    52  47  83 S5        29.95F
CLE-LAKEFRONT  CLOUDY    55  46  71 S8        29.91F
CUY CO. ARPT   NOT AVBL
LORAIN-ELYRIA  CLOUDY    50  46  86 CALM      29.93F
ASHTABULA      CLOUDY    47  44  90 CALM      29.93F
AKRON-CANTON   CLOUDY    55  45  68 CALM      29.94F
WOOSTER        CLOUDY    52  46  80 W3        29.95S
MANSFIELD      CLOUDY    55  49  80 SW9       29.94F
YOUNGSTOWN     CLOUDY    55  44  66 S5        29.95F
$$

OHZ042-051>053-060>062-070>072-077>081-220700-
  SOUTHWEST OHIO

CITY           SKY/WX    TMP DP  RH WIND       PRES   REMARKS
CINC-COVINGTON LGT RAIN  55  55 100 S6        29.95F VSB 1
CINC-LUNKEN    LGT RAIN  52  52 100 CALM      29.96F VSB 1/4
HAMILTON       FOG       52  52 100 CALM      29.96S VSB 1/2
DAYTON         CLOUDY    54  53  97 S6        29.95F FOG
WRIGHT-PAT AFB NOT AVBL
DAYTON GENERAL CLOUDY    54  53  97 S7        29.94F
WILMINGTON     CLOUDY    51  51 100 S3        29.95F FOG
$$

OHZ036-037-039>041-045>050-054>059-063>069-073>076-082>088-220700-
  CENTRAL AND SOUTHEAST OHIO

CITY           SKY/WX    TMP DP  RH WIND       PRES   REMARKS
COLUMBUS       CLOUDY    55  54  96 CALM      29.95F
OSU AIRPORT    CLOUDY    56  54  93 S6        29.94F
BOLTON FIELD   CLOUDY    53  51  92 SW5       29.95F
RICKENBACK AFB CLOUDY    52  52  99 CALM      29.95S
NEWARK         CLOUDY    56  50  80 CALM      29.94F
MARION         CLOUDY    50  46  86 S5        29.94F
LANCASTER      CLOUDY    54  51  90 SE3       29.96F
ZANESVILLE     LGT RAIN  56  49  77 CALM      29.96S
NEW PHILLY     NOT AVBL
$$




USA.gov is the U.S. government's official web portal to all federal, state and local government web resources and services.